User: anonymous   Login
Location: Holmes Observatory
(37.1039°N, 122.0513°W)
Time: 18:56:29
(UTC-07:00)
Language:

Cosmos 921 Rocket - Orbit

View from above orbital plane
View from above orbital plane
View from above satellite
View from above satellite

Ground track
Ground track

The orbit data is extracted from the following two-line orbital elements,

1 10096U 77055B   16149.03889959  .00000125  00000-0  15366-4 0  9995
2 10096  75.8337 323.6487 0042412 108.1557 252.4259 14.88465292104940
Epoch (UTC): 28 May 2016 00:56:00
Eccentricity: 0.0042412
inclination: 75.8337°
perigee height: 573 km
apogee height: 632 km
right ascension of ascending node: 323.6487°
argument of perigee: 108.1557°
revolutions per day: 14.88465292
mean anomaly at epoch: 252.4259°
orbit number at epoch: 10494

The dashed part of the orbit path shows where the satellite is in the earth's shadow,  

DLR